Weather History for Uberlandia, Brazil

Change the Weather History Date:

Thursday, January 17, 2013

  Actual Average Record
Temperature  
Mean Temperature 70 °F -  
Max Temperature 80 °F - - ()
Min Temperature 60 °F - - ()
Cooling Degree Days 5    
Growing Degree Days 20 (Base 50)    
Moisture  
Dew Point 62 °F    
Average Humidity 83    
Maximum Humidity 100    
Minimum Humidity 54    
Precipitation  
Precipitation 0.00 in - - ()
Sea Level Pressure  
Sea Level Pressure 29.98 in    
Wind  
Wind Speed 6 mph ()    
Max Wind Speed 13 mph    
Max Gust Speed -    
Visibility 4.2 miles    
Events Fog    
T = Trace of Precipitation, MM = Missing Value Source: Averaged Metar Reports

Daily Weather History Graph

Daily Weather History Graph

Search for Another Location

Airport:

Trip Planner

Search our weather history database for the weather conditions in past years. The results will help you decide how hot, cold, wet, or windy it might be!

Date:

Astronomy

Jan. 17, 2013 Rise Set
Actual Time 6:49 AM BRST 7:56 PM BRST
Civil Twilight 6:25 AM BRST 8:20 PM BRST
Nautical Twilight 5:57 AM BRST 8:48 PM BRST
Astronomical Twilight 5:28 AM BRST 9:17 PM BRST
Moon 12:13 PM BRST (1/17) No Moon Set
Length of Visible Light 13h 54m
Length of Day
13h 06m
Waxing Crescent, 36% of the Moon is Illuminated
Jan 17
Waxing Crescent
Jan 18
First Quarter
Jan 27
Full
Feb 3
Last Quarter
Feb 10
New

Hourly Weather History & Observations

Time (BRST) Temp. Heat Index Dew Point Humidity Pressure Visibility Wind Dir Wind Speed Gust Speed Precip Events Conditions
12:00 AM 64.4 °F - 62.6 °F 94% 29.98 in 6.2 mi North 8.1 mph - N/A   Mostly Cloudy
12:10 AM 62.6 °F - 60.8 °F 94% 29.98 in 6.2 mi North 5.8 mph - N/A   Mostly Cloudy
1:00 AM 62.6 °F - 62.6 °F 100% 29.95 in 0.1 mi NNE 5.8 mph - N/A Fog Fog
2:00 AM 62.6 °F - 60.8 °F 94% 29.95 in 0.9 mi NNE 8.1 mph - N/A   Mostly Cloudy
3:00 AM 62.6 °F - 62.6 °F 100% 29.95 in 0.2 mi NNE 6.9 mph - N/A Fog Fog
4:00 AM 60.8 °F - 59.0 °F 94% 29.95 in 3.1 mi North 2.3 mph - N/A   Scattered Clouds
5:00 AM 60.8 °F - 60.8 °F 100% 29.95 in 6.2 mi North 3.5 mph - N/A   Scattered Clouds
5:20 AM 60.8 °F - 60.8 °F 100% 29.95 in 0.4 mi NE 3.5 mph - N/A Fog Fog
5:25 AM 60.8 °F - 60.8 °F 100% 29.95 in 0.2 mi NE 6.9 mph - N/A Fog Fog
6:00 AM 60.8 °F - 60.8 °F 100% 29.95 in 0.3 mi NE 5.8 mph - N/A Fog Fog
7:00 AM 60.8 °F - 60.8 °F 100% 29.98 in 0.4 mi NE 4.6 mph - N/A Fog Fog
7:10 AM 60.8 °F - 60.8 °F 100% 29.98 in 0.0 mi ENE 6.9 mph - N/A Fog Fog
7:40 AM 62.6 °F - 60.8 °F 94% 29.98 in 0.6 mi NE 5.8 mph - N/A Fog Fog
8:00 AM 62.6 °F - 60.8 °F 94% 30.01 in 3.7 mi NNE 5.8 mph - N/A   Partly Cloudy
9:00 AM 66.2 °F - 62.6 °F 88% 30.01 in 6.2 mi North 8.1 mph - N/A   Mostly Cloudy
10:00 AM 68.0 °F - 62.6 °F 83% 30.04 in 6.2 mi North 5.8 mph - N/A   Mostly Cloudy
11:00 AM 71.6 °F - 64.4 °F 78% 30.04 in 6.2 mi NNW 12.7 mph - N/A   Mostly Cloudy
12:00 PM 73.4 °F - 64.4 °F 73% 30.04 in 6.2 mi NW 12.7 mph - N/A   Mostly Cloudy
1:00 PM 75.2 °F - 66.2 °F 73% 30.01 in 6.2 mi NW 9.2 mph - N/A   Scattered Clouds
2:00 PM 77.0 °F - 64.4 °F 65% 30.01 in 6.2 mi NNW 8.1 mph - N/A   Scattered Clouds
3:00 PM 78.8 °F - 64.4 °F 61% 29.98 in 6.2 mi WNW 8.1 mph - N/A   Scattered Clouds
4:00 PM 78.8 °F - 64.4 °F 61% 29.95 in 6.2 mi NNW 10.4 mph - N/A   Partly Cloudy
5:00 PM 78.8 °F - 64.4 °F 61% 29.95 in 6.2 mi West 6.9 mph - N/A   Partly Cloudy
6:00 PM 80.6 °F 81.8 °F 62.6 °F 54% 29.95 in 6.2 mi WNW 9.2 mph - N/A   Partly Cloudy
7:00 PM 80.6 °F 81.8 °F 62.6 °F 54% 29.92 in 6.2 mi West 10.4 mph - N/A   Partly Cloudy
8:00 PM 77.0 °F - 62.6 °F 61% 29.95 in 6.2 mi WNW 8.1 mph - N/A   Partly Cloudy
9:00 PM 75.2 °F - 62.6 °F 65% 29.98 in 6.2 mi West 5.8 mph - N/A   Partly Cloudy
10:00 PM 73.4 °F - 64.4 °F 73% 29.98 in 6.2 mi South 3.5 mph - N/A   Partly Cloudy
11:00 PM 69.8 °F - 64.4 °F 83% 30.01 in 6.2 mi South 4.6 mph - N/A   Partly Cloudy